This is the latest recevied weather packets stored in our database for station/object KI6PPU. If no packets are shown the sender has not sent any weather packets the latest 1 day(s).
| Time | Temp. | Humidity | Pressure | Rain* | Wind** | Luminosity | Snow |
|---|---|---|---|---|---|---|---|
| 1836274725 | 20.56° C | 80% | 1016.7 hPa | 0 mm | 0 m/s | 0 W/m² | - |
| 1836274578 | 20.56° C | 81% | 1016.9 hPa | 0 mm | 0 m/s | 0 W/m² | - |
| 1836274424 | 20.56° C | 79% | 1016.7 hPa | 0 mm | 0 m/s | 0 W/m² | - |
| 1836274278 | 20.56° C | 81% | 1016.8 hPa | 0 mm | 0 m/s | 0 W/m² | - |
| 1836274122 | 20.56° C | 79% | 1016.7 hPa | 0 mm | 0 m/s | 0 W/m² | - |
| 1778033101 | 15° C | 83% | 1017.7 hPa | 0 mm | 0.89 m/s, 159° | 39 W/m² | - |
| 1778032797 | 15° C | 83% | 1017.6 hPa | 0 mm | 0.89 m/s, 152° | 43 W/m² | - |
| 1778032495 | 15° C | 84% | 1017.6 hPa | 0 mm | 1.34 m/s, 151° | 53 W/m² | - |
| 1778032192 | 15° C | 83% | 1017.9 hPa | 0 mm | 0 m/s | 64 W/m² | - |
| 1778031889 | 15° C | 83% | 1017.7 hPa | 0 mm | 1.34 m/s, 144° | 61 W/m² | - |
| 1778031585 | 15° C | 83% | 1018 hPa | 0 mm | 0.45 m/s, 173° | 71 W/m² | - |
| 1778031283 | 15° C | 83% | 1017.8 hPa | 0 mm | 0.89 m/s, 147° | 60 W/m² | - |
| 1778030979 | 15° C | 83% | 1018 hPa | 0 mm | 0 m/s | 59 W/m² | - |
| 1778030676 | 15° C | 83% | 1017.9 hPa | 0 mm | 0.89 m/s, 114° | 62 W/m² | - |
| 1778030373 | 15° C | 84% | 1018 hPa | 0 mm | 0.89 m/s, 95° | 62 W/m² | - |
| 1778030071 | 15° C | 85% | 1017.9 hPa | 0 mm | 0.45 m/s, 120° | 65 W/m² | - |
| 1778029767 | 15° C | 86% | 1017.8 hPa | 0 mm | 0.45 m/s, 74° | 69 W/m² | - |
| 1778029466 | 15° C | 85% | 1017.8 hPa | 0 mm | 0 m/s | 75 W/m² | - |
| 1778029162 | 15° C | 86% | 1017.8 hPa | 0 mm | 0 m/s | 57 W/m² | - |
| 1778028860 | 15° C | 86% | 1018.1 hPa | 0 mm | 0.89 m/s, 81° | 43 W/m² | - |
| 1778028554 | 15° C | 85% | 1017.9 hPa | 0 mm | 0 m/s | 38 W/m² | - |
| 1778028253 | 15° C | 85% | 1018 hPa | 0 mm | 0 m/s | 34 W/m² | - |
| 1778027949 | 14.44° C | 85% | 1017.7 hPa | 0 mm | 0 m/s | 35 W/m² | - |
| 1778027645 | 15° C | 85% | 1017.7 hPa | 0 mm | 0 m/s | 35 W/m² | - |
| 1778027342 | 15° C | 86% | 1017.8 hPa | 0 mm | 0 m/s | 31 W/m² | - |
* Rain latest hour (hover to see other rain measurements)
** Current wind speed in m/s (hover to see current wind gust speed)